Location: Amanico Ergina Village
(37.7824°N, 122.4366°W)
Time: 08:08:28
(UTC+00:00)

Cosmos 2082 Rocket - Pass Details

Date: 29 October 2020
Orbit: 833 x 854 km, 71.0° (Epoch: 02 December)

Event Time Altitude Azimuth Distance (km) Brightness Sun altitude
Exits shadow 12:09:32 54° 164° (SSE) 1,002 2.5 -28.8°
Maximum altitude 12:10:38 68° 109° (ESE) 895 2.4 -28.6°
Drops below altitude 10° 12:16:12 10° 28° (NNE) 2,449 4.9 -27.5°
Sets 12:18:39 0° 26° (NNE) 3,389 5.7 -27.0°
